Weather History for Beaufort MCAS, SC

Change the Weather History Date:

Monday, November 26, 2012

  Actual Average Record
Temperature  
Mean Temperature 51 °F -  
Max Temperature 69 °F 67 °F 83 °F (1973)
Min Temperature 33 °F 47 °F 21 °F (1950)
Degree Days  
Heating Degree Days 14    
Growing Degree Days 1 (Base 50)    
Moisture  
Dew Point 35 °F    
Average Humidity 73    
Maximum Humidity 100    
Minimum Humidity 21    
Precipitation  
Precipitation 0.00 in - - ()
Sea Level Pressure  
Sea Level Pressure 30.19 in    
Wind  
Wind Speed 2 mph (SW)    
Max Wind Speed 7 mph    
Max Gust Speed -    
Visibility 7 miles    
Events Fog , Rain    
Averages and records for this station are not official NWS values.
T = Trace of Precipitation, MM = Missing Value Source: NWS Daily Summary

Daily Weather History Graph

Daily Weather History Graph

Search for Another Location

Airport:

Trip Planner

Search our weather history database for the weather conditions in past years. The results will help you decide how hot, cold, wet, or windy it might be!

Date:

Astronomy

Nov. 26, 2012 Rise Set
Actual Time 7:02 AM EST 5:17 PM EST
Civil Twilight 6:36 AM EST 5:44 PM EST
Nautical Twilight 6:05 AM EST 6:14 PM EST
Astronomical Twilight 5:36 AM EST 6:44 PM EST
Moon 4:06 PM EST (11/26) 5:15 AM EST (11/26)
Length of Visible Light 11h 08m
Length of Day
10h 15m
Waxing Gibbous, 97% of the Moon is Illuminated
Nov 26
Waxing Gibbous
Nov 28
Full
Dec 6
Last Quarter
Dec 13
New
Dec 20
First Quarter

Hourly Weather History & Observations

Time (EST) Temp. Windchill Dew Point Humidity Pressure Visibility Wind Dir Wind Speed Gust Speed Precip Events Conditions
12:03 AM 39.2 °F - 37.4 °F 93% 30.16 in 7.0 mi Calm Calm - N/A   Scattered Clouds
12:08 AM 39.2 °F - 37.4 °F 93% 30.16 in 1.2 mi Calm Calm - N/A   Scattered Clouds
12:11 AM 37.4 °F - 37.4 °F 100% 30.16 in 0.8 mi Calm Calm - N/A   Mist
12:27 AM 39.2 °F 37.0 °F 37.4 °F 93% 30.16 in 0.5 mi WSW 3.5 mph - 0.00 in Fog , Rain Light Rain
12:29 AM 37.4 °F - 37.4 °F 100% 30.15 in 1.0 mi Calm Calm - 0.00 in Rain Light Rain
12:31 AM 37.4 °F - 35.6 °F 93% 30.15 in 2.0 mi Calm Calm - 0.00 in   Scattered Clouds
12:38 AM 37.4 °F - 35.6 °F 93% 30.15 in 7.0 mi Calm Calm - 0.00 in   Partly Cloudy
12:46 AM 37.4 °F 34.9 °F 37.4 °F 100% 30.15 in 1.8 mi SW 3.5 mph - 0.00 in   Scattered Clouds
12:51 AM 37.4 °F 34.9 °F 37.4 °F 100% 30.15 in 1.0 mi SW 3.5 mph - 0.00 in   Mist
12:56 AM 39.9 °F - 37.9 °F 93% 30.15 in 1.5 mi Calm Calm - 0.00 in   Partly Cloudy
12:58 AM 39.2 °F - 37.4 °F 93% 30.15 in 2.0 mi Calm Calm - N/A   Partly Cloudy
1:06 AM 39.2 °F - 37.4 °F 93% 30.15 in 6.0 mi Calm Calm - N/A   Partly Cloudy
1:56 AM 42.1 °F 40.2 °F 39.9 °F 92% 30.16 in 8.0 mi WSW 3.5 mph - N/A   Clear
2:56 AM 37.9 °F 35.5 °F 36.0 °F 93% 30.17 in 5.0 mi SW 3.5 mph - N/A   Clear
3:56 AM 37.0 °F - 36.0 °F 96% 30.17 in 7.0 mi Calm Calm - N/A   Clear
4:56 AM 35.1 °F 32.2 °F 32.0 °F 89% 30.18 in 10.0 mi WSW 3.5 mph - N/A   Clear
5:56 AM 35.1 °F 31.0 °F 32.0 °F 89% 30.20 in 10.0 mi SW 4.6 mph - N/A   Clear
6:56 AM 33.1 °F 30.0 °F 28.9 °F 85% 30.22 in 10.0 mi WSW 3.5 mph - N/A   Clear
7:56 AM 36.0 °F - 33.1 °F 89% 30.23 in 10.0 mi Calm Calm - N/A   Clear
8:56 AM 48.0 °F - 37.9 °F 68% 30.26 in 10.0 mi Calm Calm - N/A   Partly Cloudy
9:56 AM 57.0 °F - 30.0 °F 36% 30.27 in 10.0 mi NNW 3.5 mph - N/A   Clear
10:56 AM 62.1 °F - 25.0 °F 24% 30.27 in 10.0 mi Calm Calm - N/A   Clear
11:56 AM 64.9 °F - 24.1 °F 21% 30.24 in 10.0 mi NNW 3.5 mph - N/A   Clear
12:56 PM 64.9 °F - 30.9 °F 28% 30.22 in 10.0 mi SSE 5.8 mph - N/A   Clear
1:56 PM 69.1 °F - 28.9 °F 22% 30.20 in 10.0 mi Variable 4.6 mph - N/A   Clear
2:56 PM 66.9 °F - 27.0 °F 22% 30.19 in 10.0 mi Variable 3.5 mph - N/A   Clear
3:56 PM 64.0 °F - 35.1 °F 34% 30.18 in 10.0 mi South 6.9 mph - N/A   Partly Cloudy
4:56 PM 60.1 °F - 30.9 °F 33% 30.19 in 10.0 mi South 5.8 mph - N/A   Clear
5:56 PM 55.0 °F - 39.9 °F 57% 30.19 in 10.0 mi Calm Calm - N/A   Clear
6:56 PM 54.0 °F - 41.0 °F 62% 30.21 in 10.0 mi South 3.5 mph - N/A   Clear
7:56 PM 50.0 °F - 39.9 °F 68% 30.22 in 10.0 mi SW 3.5 mph - N/A   Clear
8:56 PM 46.9 °F - 39.0 °F 74% 30.23 in 10.0 mi WSW 4.6 mph - N/A   Clear
9:56 PM 44.1 °F - 37.9 °F 79% 30.22 in 10.0 mi Calm Calm - N/A   Clear
10:56 PM 45.0 °F - 39.9 °F 82% 30.22 in 10.0 mi Calm Calm - N/A   Clear
11:56 PM 45.0 °F - 39.0 °F 80% 30.22 in 10.0 mi Calm Calm - N/A   Clear